Location: Montr�al
(45.5000°N, 73.5830°W)
Time: 09:08:07
(UTC-04:00)

ISS - Visible Passes

Search period start: 30 August 2016 00:00
Search period end: 09 September 2016 00:00
Orbit: 402 x 406 km, 51.6° (Epoch: 29 August)

Date Brightness Start Highest point End Pass type
(mag) Time Alt. Az. Time Alt. Az. Time Alt. Az.
04 Sep -0.9 05:35:23 10° S 05:37:43 18° SE 05:40:03 10° E visible
05 Sep -0.3 04:45:09 10° SE 04:45:30 10° SE 04:45:52 10° SE visible
06 Sep -2.2 05:26:00 10° SSW 05:29:02 38° SE 05:32:06 10° ENE visible
07 Sep -1.4 04:35:53 20° SSE 04:36:42 22° SE 04:39:19 10° E visible
08 Sep -0.2 03:45:41 11° ESE 03:45:41 11° ESE 03:45:55 10° ESE visible
08 Sep -3.3 05:18:20 20° SW 05:20:26 81° SSE 05:23:43 10° ENE visible
